Uvalde, Texas, United States (78801)
Lat: 29.21N, Lon: 99.79W
Wx Zone: TXZ203
Local Info
Past Weather Observations for Today

NOTE: This archive is for the closest National Weather Service station to Uvalde. Information may differ from the station used for current weather conditions.

Click here for Long-term Archive

Time Weather Temperature Dewpoint Humidity Pressure Winds Precip Visibility
14:35
Partly Cloudy
88°F / 31°C 75°F / 24°C 66% 29.98 in
(1015 mb)
SE 10.4 mph
(SE 17 kph)
- 7SM
14:15
Mostly Cloudy
88°F / 31°C 75°F / 24°C 66% 29.98 in
(1015 mb)
SSE 8.1 mph
(SSE 13 kph)
- 7SM
13:55
Mostly Cloudy
86°F / 30°C 75°F / 24°C 70% 29.98 in
(1015 mb)
SE 11.5 mph
(SE 19 kph)
- 7SM
13:35
Partly Cloudy
86°F / 30°C 75°F / 24°C 70% 29.98 in
(1015 mb)
SE 9.2 mph
(SE 15 kph)
- 7SM
13:15
Partly Cloudy
86°F / 30°C 75°F / 24°C 70% 29.98 in
(1015 mb)
SSE 12.7 mph
(SSE 20 kph)
- 7SM
12:55
Mostly Cloudy
86°F / 30°C 75°F / 24°C 70% 29.98 in
(1015 mb)
SE 10.4 mph
(SE 17 kph)
- 7SM
12:35
Mostly Cloudy
86°F / 30°C 75°F / 24°C 70% 29.98 in
(1015 mb)
SSE 10.4 mph
(SSE 17 kph)
- 7SM
12:15
Mostly Cloudy
86°F / 30°C 75°F / 24°C 70% 29.98 in
(1015 mb)
SSE 9.2 mph
(SSE 15 kph)
- 7SM
11:55
Mostly Cloudy
86°F / 30°C 75°F / 24°C 70% 29.98 in
(1015 mb)
SSE 11.5 mph
(SSE 19 kph)
- 7SM
11:35
Mostly Cloudy
84°F / 29°C 75°F / 24°C 74% 29.98 in
(1015 mb)
SSE 11.5 mph
(SSE 19 kph)
- 7SM
11:15
Partly Cloudy
84°F / 29°C 75°F / 24°C 74% 30.01 in
(1016 mb)
SSE 12.7 mph
(SSE 20 kph)
- 7SM
10:55
Partly Cloudy
84°F / 29°C 75°F / 24°C 74% 30.01 in
(1016 mb)
SSE 11.5 mph
(SSE 19 kph)
- 7SM
10:35
Partly Cloudy
84°F / 29°C 75°F / 24°C 74% 30.01 in
(1016 mb)
SSE 9.2 mph
(SSE 15 kph)
- 7SM
10:15
Partly Cloudy
Hazy
82°F / 28°C 75°F / 24°C 79% 29.98 in
(1015 mb)
S 10.4 mph
(S 17 kph)
- 5SM
09:55
Mostly Cloudy
Hazy
82°F / 28°C 75°F / 24°C 79% 29.98 in
(1015 mb)
SSE 6.9 mph
(SSE 11 kph)
- 4SM
09:35
Mostly Cloudy
82°F / 28°C 75°F / 24°C 79% 29.98 in
(1015 mb)
SSE 9.2 mph
(SSE 15 kph)
- 7SM
09:15
Overcast
Hazy
79°F / 26°C 75°F / 24°C 89% 29.98 in
(1015 mb)
SSE 10.4 mph
(SSE 17 kph)
- 5SM
08:55
Overcast
Fog And Mist
79°F / 26°C 75°F / 24°C 89% 29.98 in
(1015 mb)
SE 9.2 mph
(SE 15 kph)
- 5SM
08:35
Overcast
Fog And Mist
77°F / 25°C 75°F / 24°C 94% 30.01 in
(1016 mb)
SE 8.1 mph
(SE 13 kph)
- 5SM
08:15
Overcast
Fog And Mist
77°F / 25°C 75°F / 24°C 94% 30.01 in
(1016 mb)
SSE 5.8 mph
(SSE 9 kph)
- 5SM
07:55
Overcast
Fog And Mist
77°F / 25°C 75°F / 24°C 94% 30.01 in
(1016 mb)
SSE 6.9 mph
(SSE 11 kph)
- 5SM
07:35
Overcast
Fog And Mist
77°F / 25°C 73°F / 23°C 89% 29.98 in
(1015 mb)
SE 5.8 mph
(SE 9 kph)
- 5SM
07:15
Overcast
Fog And Mist
77°F / 25°C 73°F / 23°C 89% 29.98 in
(1015 mb)
SSE 6.9 mph
(SSE 11 kph)
- 5SM
06:55
Overcast
Fog And Mist
77°F / 25°C 73°F / 23°C 89% 29.98 in
(1015 mb)
SE 10.4 mph
(SE 17 kph)
- 5SM
06:35
Overcast
Fog And Mist
77°F / 25°C 73°F / 23°C 89% 29.98 in
(1015 mb)
SE 8.1 mph
(SE 13 kph)
- 5SM
06:15
Overcast
Fog And Mist
75°F / 24°C 73°F / 23°C 94% 29.98 in
(1015 mb)
SE 6.9 mph
(SE 11 kph)
- 5SM
05:55
Overcast
75°F / 24°C 73°F / 23°C 94% 29.98 in
(1015 mb)
SE 5.8 mph
(SE 9 kph)
- 7SM
05:35
Overcast
75°F / 24°C 73°F / 23°C 94% 29.95 in
(1014 mb)
SE 8.1 mph
(SE 13 kph)
- 7SM
05:15
Overcast
75°F / 24°C 73°F / 23°C 94% 29.98 in
(1015 mb)
SE 6.9 mph
(SE 11 kph)
- 7SM
04:55
Overcast
75°F / 24°C 73°F / 23°C 94% 29.98 in
(1015 mb)
SE 6.9 mph
(SE 11 kph)
- 7SM
04:35
Overcast
75°F / 24°C 73°F / 23°C 94% 29.98 in
(1015 mb)
SE 6.9 mph
(SE 11 kph)
- 7SM
04:15
Mostly Cloudy
75°F / 24°C 73°F / 23°C 94% 29.98 in
(1015 mb)
SE 4.6 mph
(SE 7 kph)
- 7SM
03:55
Mostly Cloudy
75°F / 24°C 73°F / 23°C 94% 29.95 in
(1014 mb)
SE 6.9 mph
(SE 11 kph)
- 7SM
03:35
Overcast
77°F / 25°C 73°F / 23°C 89% 29.95 in
(1014 mb)
SE 9.2 mph
(SE 15 kph)
- 7SM
03:15
Overcast
77°F / 25°C 73°F / 23°C 89% 29.98 in
(1015 mb)
SE 5.8 mph
(SE 9 kph)
- 7SM
02:55
Overcast
77°F / 25°C 73°F / 23°C 89% 29.98 in
(1015 mb)
SE 5.8 mph
(SE 9 kph)
- 7SM
02:35
Overcast
77°F / 25°C 75°F / 24°C 94% 29.95 in
(1014 mb)
SE 5.8 mph
(SE 9 kph)
- 7SM
02:15
Overcast
77°F / 25°C 75°F / 24°C 94% 29.95 in
(1014 mb)
SE 8.1 mph
(SE 13 kph)
- 7SM
01:55
Overcast
77°F / 25°C 75°F / 24°C 94% 29.95 in
(1014 mb)
SE 8.1 mph
(SE 13 kph)
- 7SM
01:35
Overcast
77°F / 25°C 75°F / 24°C 94% 29.95 in
(1014 mb)
SE 9.2 mph
(SE 15 kph)
- 7SM
01:15
Overcast
77°F / 25°C 75°F / 24°C 94% 29.95 in
(1014 mb)
ESE 8.1 mph
(ESE 13 kph)
- 7SM
00:55
Overcast
77°F / 25°C 75°F / 24°C 94% 29.98 in
(1015 mb)
ESE 6.9 mph
(ESE 11 kph)
- 7SM
00:35
Overcast
77°F / 25°C 75°F / 24°C 94% 29.98 in
(1015 mb)
ESE 6.9 mph
(ESE 11 kph)
- 7SM
00:15
Overcast
77°F / 25°C 75°F / 24°C 94% 29.95 in
(1014 mb)
SE 8.1 mph
(SE 13 kph)
- 7SM
Time Weather Temperature Dewpoint Humidity Pressure Winds Precip Visibility


Weather for websites

WeatherForYou.com, LLC is not responsible for any damages or problems caused by this service. Current weather conditions are obtained from the closest station including government and personal stations which may have varying degrees of accuracy. Weather forecasts are derived from the NOAA NDFD. Like all things, this site belongs to Jesus Christ... He just trusts us to maintain it. If you have any questions or comments email webmaster@weatherforyou.com

Copyright © 2016, WeatherForYou.com LLC. All rights reserved.